[[{"header":{"parameterUnit":"m.s-1","parameterCategory":1,"la1":30.2991,"la2":30.254,"lo1":-89.0895,"lo2":-89.0444,"dy":0.0017,"dx":0.0017,"nx":28,"ny":28,"refTime":"2025-07-19T09:00:00:Z","depth":0,"parameterNumber":2,"parameterNumberName":"U-component_of_WINDS"},"data":[0,0,0,0,0,0,0,0,0,0,0,0,0,0,0,0,0,0,0,0,0,0,0,0,0,0,0,0,0,0,0,0,0,0,0,0,0,0,0,0,0,0,0,0,0,0,0,0,0,0,0,0,0,0,0,0,0,0,1.62,1.62,0,1.6191,1.6191,1.619,1.6111,1.6109,1.6107,1.6105,1.6097,1.6098,1.61,0,0,0,0,0,0,0,0,0,0,0,0,0,1.6149,1.615,1.62,1.62,1.62,1.6191,1.6191,1.619,1.6111,1.6109,1.6106,1.6104,1.6096,1.6098,1.61,0,0,0,0,0,0,0,0,0,0,0,0,0,1.6159,1.6151,1.62,1.6159,1.6155,1.6191,1.6191,1.619,1.6112,1.6109,1.6106,1.6103,1.6096,1.6098,1.6101,1.6175,0,0,1.6108,1.6109,0,0,0,0,0,0,0,0,1.6158,1.6161,1.6165,1.6162,1.6158,1.6149,1.6169,1.6185,1.6112,1.6128,1.6105,1.6102,1.6117,1.6117,1.6122,1.6174,1.6174,1.6108,1.611,1.6111,1.6111,0,0,0,0,0,0,0,1.6158,1.6161,1.6196,1.6165,1.6161,1.6141,1.6139,1.6172,1.6139,1.6127,1.6121,1.6121,1.6114,1.612,1.6121,1.6174,1.6108,1.611,1.6112,1.6113,1.6283,1.6286,0,0,0,0,0,0,1.6163,1.6161,1.6197,1.6196,1.6151,1.6145,1.6142,1.6155,1.6139,1.6133,1.6123,1.6117,1.6117,1.6118,1.6121,1.6204,1.6111,1.6113,1.6114,1.628,1.6284,1.6287,0,0,0,0,0,0,1.6162,1.6167,1.6197,1.6177,1.6179,1.6149,1.6163,1.6156,1.6162,1.6136,1.613,1.6135,1.6115,1.6117,1.6161,1.6202,1.6114,1.6116,1.6277,1.6282,1.6286,1.6372,0,0,0,0,0,0,1.6161,1.6167,1.6195,1.6178,1.618,1.6238,1.6166,1.6158,1.6166,1.6158,1.6146,1.6141,1.6113,1.6158,1.6163,1.6204,1.6118,1.6273,1.6279,1.6284,1.6366,1.6379,1.6391,0,0,0,0,0,1.6159,1.6221,1.6197,1.6202,1.6215,1.624,1.6242,1.6208,1.617,1.6197,1.618,1.6141,1.6198,1.6163,1.6169,1.6211,1.627,1.6277,1.6284,1.636,1.6377,1.6391,0,0,0,0,0,0,1.6245,1.6218,1.6191,1.6249,1.6247,1.6227,1.6261,1.6227,1.6237,1.6229,1.6187,1.6185,1.6234,1.6227,1.6189,1.628,1.6227,1.6235,1.6283,1.6298,1.6311,1.631,1.612,0,0,0,0,0,1.627,1.6293,1.6268,1.6322,1.6322,1.6292,1.6302,1.6276,1.6273,1.6272,1.6258,1.6257,1.6274,1.6286,1.6301,1.6365,1.636,1.6396,1.6409,1.642,1.6427,1.6457,1.6472,1.631,1.631,1.631,0,0,1.6323,1.6311,1.6328,1.6338,1.6334,1.6358,1.6292,1.6321,1.6338,1.6276,1.6315,1.6306,1.6302,1.6355,1.6378,1.6351,1.6471,1.6429,1.6437,1.6438,1.6466,1.6481,1.6495,1.6315,1.6314,1.6313,0,0,1.6431,1.6425,1.6467,1.6464,1.6458,1.6437,1.6447,1.6432,1.6422,1.6461,1.6415,1.6435,1.6466,1.6464,1.6467,1.6572,1.6535,1.6578,1.6644,1.6674,1.6687,1.6698,1.6733,1.6746,1.6586,1.6586,1.6586,0,1.6497,1.6531,1.6493,1.6524,1.6529,1.6474,1.6515,1.6514,1.6514,1.6518,1.6488,1.6524,1.6517,1.6568,1.6593,1.6599,1.6608,1.6578,1.6688,1.6699,1.6709,1.6741,1.6755,1.6591,1.6591,1.659,1.659,0,1.6611,1.6635,1.667,1.6669,1.6678,1.6715,1.6682,1.6696,1.6669,1.6652,1.6691,1.6681,1.6691,1.6702,1.6677,1.6749,1.6731,1.6696,1.664,1.673,1.6759,1.6772,1.6598,1.6596,1.6595,1.6594,0,0,1.6772,1.6748,1.6762,1.6759,1.6748,1.6766,1.6799,1.6808,1.6819,1.6821,1.6847,1.6874,1.6839,1.6843,1.6817,1.6844,1.6924,1.6804,1.6803,1.6824,1.7,1.7025,1.704,1.6901,1.6903,1.6905,1.6999,0,1.6873,1.6927,1.6894,1.6953,1.6973,1.6921,1.695,1.6946,1.693,1.6945,1.6928,1.6946,1.6901,1.6902,1.6927,1.6909,1.6959,1.6903,1.6923,1.6924,1.6922,1.7056,1.7083,1.7172,1.7011,1.7013,1.7014,0,1.6998,1.7002,1.7064,1.7045,1.7053,1.7079,1.7083,1.7099,1.7093,1.7079,1.7083,1.7049,1.708,1.7028,1.7068,1.7031,1.7037,1.703,1.7033,1.7031,1.6973,1.7055,1.72,1.7213,1.7033,1.7031,1.703,0,1.7105,1.7127,1.7165,1.7165,1.7147,1.7166,1.7159,1.715,1.7156,1.7161,1.7164,1.7173,1.7177,1.7184,1.7154,1.7119,1.7197,1.7143,1.7185,1.7186,1.7202,1.7201,1.7348,1.7212,1.7212,1.7211,1.7211,0,1.7219,1.7258,1.7212,1.7236,1.7277,1.7239,1.7281,1.7268,1.726,1.728,1.7237,1.7256,1.7216,1.7231,1.7208,1.7243,1.7247,1.7235,1.7228,1.7238,1.7239,1.7239,1.7231,1.7215,1.7214,1.7213,1.7213,0,1.7345,1.7316,1.7354,1.7332,1.7328,1.7359,1.734,1.7361,1.7342,1.7367,1.7371,1.7341,1.7357,1.7328,1.734,1.7324,1.7373,1.7358,1.7375,1.7369,1.7412,1.7407,1.7562,1.7579,1.7435,1.7436,1.7438,0,1.7418,1.7446,1.7427,1.7436,1.7431,1.7448,1.7454,1.7417,1.7425,1.7419,1.744,1.7452,1.7459,1.7486,1.7465,1.7474,1.7457,1.751,1.7458,1.7465,1.7454,1.7451,1.7453,1.752,1.7522,1.7524,1.7525,0,1.755,1.7534,1.7544,1.7549,1.7557,1.756,1.7559,1.7569,1.753,1.7541,1.7556,1.7561,1.7573,1.7584,1.7588,1.758,1.7546,1.7542,1.7551,1.756,1.7567,1.7561,1.7401,1.7538,1.7536,1.7536,1.7535,1.7534,1.765,1.7671,1.766,1.7672,1.7667,1.7667,1.7684,1.7667,1.7678,1.7683,1.7662,1.7681,1.7672,1.7673,1.767,1.7684,1.766,1.7675,1.7678,1.7681,1.7687,1.7567,1.7685,1.7684,1.7684,1.7684,1.7683,0,1.7777,1.7767,1.7778,1.7777,1.7787,1.7753,1.775,1.776,1.7777,1.7772,1.7779,1.7795,1.7805,1.7786,1.7793,1.7808,1.7792,1.7811,1.7808,1.7806,1.7709,1.7699,1.7823,1.7823,1.7823,1.7823,1.7823,1.7823,1.7844,1.7877,1.786,1.789,1.7879,1.7897,1.7897,1.7897,1.7892,1.7911,1.7919,1.7906,1.7895,1.79,1.7908,1.7902,1.7906,1.793,1.7918,1.7827,1.7813,1.78,1.779,1.7931,1.7932,1.8013,1.8013,1.8014]},{"header":{"parameterUnit":"m.s-1","parameterCategory":1,"la1":30.2991,"la2":30.254,"lo1":-89.0895,"lo2":-89.0444,"dy":0.0017,"dx":0.0017,"nx":28,"ny":28,"refTime":"2025-07-19T09:00:00:Z","depth":0,"parameterNumber":3,"parameterNumberName":"V-component_of_WINDS"},"data":[0,0,0,0,0,0,0,0,0,0,0,0,0,0,0,0,0,0,0,0,0,0,0,0,0,0,0,0,0,0,0,0,0,0,0,0,0,0,0,0,0,0,0,0,0,0,0,0,0,0,0,0,0,0,0,0,0,0,3.2638,3.2639,0,3.2728,3.2729,3.273,3.2694,3.2692,3.269,3.2688,3.2775,3.278,3.2784,0,0,0,0,0,0,0,0,0,0,0,0,0,3.2427,3.2431,3.2638,3.2639,3.264,3.2728,3.2729,3.2731,3.2694,3.2692,3.2689,3.2687,3.2774,3.2779,3.2784,0,0,0,0,0,0,0,0,0,0,0,0,0,3.2518,3.2433,3.2637,3.2632,3.2633,3.2728,3.2729,3.2731,3.2695,3.2692,3.2688,3.2685,3.2772,3.2779,3.2785,3.2889,0,0,3.2805,3.2808,0,0,0,0,0,0,0,0,3.2513,3.2526,3.2632,3.2633,3.2634,3.2697,3.2687,3.2784,3.2696,3.2671,3.2687,3.2684,3.2751,3.2759,3.2783,3.2893,3.2897,3.2805,3.2809,3.2812,3.2814,0,0,0,0,0,0,0,3.2507,3.2522,3.2673,3.2634,3.2635,3.2624,3.2633,3.2705,3.2728,3.2673,3.2671,3.2682,3.2751,3.2777,3.2785,3.2898,3.2805,3.2811,3.2815,3.2818,3.3095,3.3098,0,0,0,0,0,0,3.2501,3.2517,3.267,3.2676,3.2565,3.263,3.2641,3.268,3.2727,3.2731,3.2685,3.268,3.2768,3.2778,3.2788,3.2911,3.2812,3.2818,3.2822,3.3091,3.3095,3.3099,0,0,0,0,0,0,3.2497,3.2515,3.2667,3.2596,3.2614,3.2637,3.2681,3.2683,3.2709,3.2736,3.2739,3.2707,3.2766,3.2779,3.2864,3.2914,3.2821,3.2827,3.3087,3.3093,3.3097,3.3159,0,0,0,0,0,0,3.2491,3.2514,3.2555,3.2597,3.2618,3.2743,3.2684,3.2687,3.2721,3.2715,3.2758,3.2762,3.2764,3.2854,3.287,3.2921,3.2832,3.3083,3.309,3.3096,3.3153,3.3166,3.3177,0,0,0,0,0,3.2484,3.2568,3.2557,3.2576,3.267,3.2746,3.2758,3.276,3.2725,3.2765,3.2782,3.2761,3.2906,3.2863,3.2881,3.2934,3.308,3.3088,3.3095,3.3147,3.3163,3.3177,0,0,0,0,0,0,3.253,3.2573,3.2562,3.2663,3.2701,3.274,3.2791,3.2777,3.2825,3.2818,3.2816,3.2826,3.2914,3.2932,3.2884,3.3036,3.2987,3.2999,3.3021,3.3036,3.3048,3.3041,3.2837,0,0,0,0,0,3.2552,3.2611,3.2646,3.2731,3.2751,3.2768,3.2801,3.2799,3.2838,3.2853,3.2877,3.2914,3.2967,3.3003,3.3054,3.3155,3.3163,3.3201,3.3213,3.3223,3.3232,3.3285,3.3302,3.3125,3.3125,3.3125,0,0,3.2598,3.2629,3.2666,3.2741,3.2771,3.283,3.2782,3.2847,3.2891,3.2863,3.2945,3.2963,3.3004,3.3097,3.3139,3.3116,3.3283,3.3233,3.324,3.3245,3.3295,3.3312,3.3327,3.313,3.3129,3.3128,0,0,3.2711,3.2742,3.2816,3.2847,3.2892,3.2903,3.292,3.2961,3.2973,3.3055,3.3035,3.3086,3.3179,3.3209,3.3236,3.336,3.3341,3.3377,3.344,3.3491,3.3505,3.3518,3.356,3.3576,3.3387,3.3387,3.3387,0,3.2762,3.2853,3.2855,3.2923,3.2955,3.2934,3.3008,3.3037,3.3096,3.3118,3.3091,3.3207,3.3233,3.3332,3.3363,3.3386,3.3404,3.3371,3.3504,3.3516,3.3527,3.3568,3.3584,3.3391,3.339,3.339,3.3389,0,3.2912,3.2975,3.3029,3.3088,3.3127,3.3197,3.3208,3.3247,3.3242,3.3254,3.3337,3.3368,3.3424,3.3448,3.3443,3.3546,3.353,3.3503,3.3454,3.3548,3.3586,3.3602,3.3396,3.3395,3.3394,3.3393,0,0,3.3057,3.3117,3.3136,3.3162,3.3211,3.3259,3.3327,3.3383,3.3415,3.3457,3.3512,3.3592,3.3567,3.3598,3.3596,3.3642,3.3736,3.361,3.3611,3.3631,3.3849,3.3868,3.3886,3.3725,3.3728,3.373,3.3845,0,3.3173,3.3295,3.3299,3.3409,3.3466,3.3446,3.3505,3.354,3.3554,3.3603,3.3617,3.3672,3.3637,3.3655,3.37,3.3716,3.378,3.3707,3.3774,3.3776,3.3763,3.3906,3.3926,3.4034,3.386,3.3863,3.3865,0,3.3325,3.3373,3.3489,3.3528,3.3552,3.3605,3.3657,3.3705,3.3743,3.3749,3.3784,3.3775,3.3842,3.3792,3.3883,3.3834,3.3861,3.3873,3.3877,3.3882,3.3825,3.3913,3.4068,3.4084,3.3888,3.3886,3.3885,0,3.3417,3.351,3.3591,3.3614,3.3662,3.37,3.3721,3.3757,3.379,3.3834,3.3856,3.3907,3.3934,3.3973,3.3977,3.3941,3.4069,3.4019,3.4074,3.4074,3.4101,3.4099,3.4261,3.4121,3.4121,3.4121,3.4121,0,3.3546,3.3617,3.3633,3.3683,3.3762,3.3764,3.3842,3.386,3.3891,3.3943,3.3929,3.3977,3.3981,3.4029,3.4033,3.4107,3.412,3.4126,3.4125,3.4126,3.4125,3.4143,3.4135,3.4125,3.4124,3.4123,3.4123,0,3.3662,3.3676,3.3762,3.3801,3.3812,3.3868,3.39,3.3947,3.3959,3.4024,3.4039,3.4058,3.4114,3.4123,3.4189,3.4192,3.428,3.4273,3.4268,3.4266,3.432,3.4314,3.4498,3.4521,3.4368,3.4369,3.4371,0,3.3742,3.3797,3.3842,3.3876,3.39,3.3955,3.3989,3.3993,3.4029,3.4076,3.4117,3.4172,3.4217,3.4308,3.4326,3.4376,3.4369,3.443,3.4376,3.4375,3.4368,3.4364,3.4369,3.4439,3.4441,3.4443,3.4444,0,3.3883,3.3887,3.3938,3.3991,3.4032,3.4074,3.4113,3.4141,3.415,3.419,3.4249,3.4284,3.4352,3.4406,3.4456,3.4476,3.4461,3.4461,3.4476,3.4476,3.447,3.4473,3.4294,3.4456,3.4455,3.4454,3.4453,3.4453,3.3983,3.403,3.4069,3.4125,3.4155,3.4192,3.4237,3.4255,3.4305,3.4361,3.436,3.4424,3.4459,3.4525,3.4548,3.4596,3.4576,3.4599,3.4604,3.4609,3.4614,3.4464,3.4606,3.4605,3.4605,3.4605,3.4604,0,3.4121,3.4145,3.4197,3.4253,3.4297,3.4281,3.4323,3.436,3.4417,3.4452,3.4497,3.4563,3.4616,3.4638,3.4689,3.4724,3.4718,3.4737,3.4733,3.4738,3.463,3.4611,3.4741,3.474,3.474,3.474,3.474,3.474,3.4199,3.4277,3.4286,3.4378,3.4401,3.4465,3.449,3.4523,3.4551,3.4626,3.467,3.4685,3.4714,3.4768,3.4814,3.4819,3.4838,3.486,3.4862,3.476,3.4746,3.4733,3.4715,3.4864,3.4864,3.4966,3.4967,3.4967]}]]